Location: Antoign�
(47.0844°N, 0.1131°W)
Time: 00:30:13
(UTC+00:00)

SL-08 R/B - Pass Details

Date: 03 March 2021
Orbit: 949 x 1019 km, 82.9° (Epoch: 14 April)

Event Time Altitude Azimuth Distance (km) Brightness Sun altitude
Exits shadow 20:11:54 28° 169° (S) 1,793 5.6 -24.8°
Maximum altitude 20:15:26 69° 94° (E) 1,089 4.4 -25.4°
Drops below altitude 10° 20:21:52 10° 13° (NNE) 2,818 7.0 -26.4°
Sets 20:24:26 0° 11° (NNE) 3,771 7.7 -26.9°
